Home   Weather   Hobart   Past weeks

Flag for Australia Past Weather in Hobart, Tasmania, Australia — Yesterday and Last 2 Weeks

Now
52 °F

Passing clouds.


Feels Like: 50 °F
Forecast: 43 / 64 °F
Wind: 6 mph from Northwest

Location: Hobart Airport

Current Time: Apr 30, 2017 at 1:44:31 am

Latest Report: Apr 30, 2017 at 1:00 am


Visibility: N/A

Pressure: 30.15 "Hg

Humidity: 94%

Dew Point: 50 °F

Location of HobartLocation

Past Weather in Hobart — Graph

°F

Hobart Temperature Yesterday

Maximum temperature yesterday: 64 °F (at 12:00 pm)
Minimum temperature yesterday: 52 °F (at 6:00 am)
Average temperature yesterday: 58 °F

High & Low Weather Summary for the Past Weeks

 TemperatureHumidityPressure
High75 °F (Apr 21, 12:00 pm)100% (Apr 24, 5:00 am)30.39 "Hg (Apr 24, 5:00 am)
Low39 °F (Apr 27, 2:00 am)32% (Apr 17, 3:30 pm)29.47 "Hg (Apr 25, 11:30 pm)
Average57 °F71%30.07 "Hg
* Reported Apr 15 12:00 am — Apr 30 12:30 am, Hobart, Weather by CustomWeather, © 2017

Note: Actual official high and low records may vary slightly from our data, if they occured in-between our weather recording intervals... More about our weather records

Advertising

Hobart Weather History for the Previous 24 Hours

Scroll right to see more
 ConditionsComfort  
Time TempWeatherWind HumidityBarometerVisibility
12:30 am
Sun, Apr 30
54 °FPassing clouds.5 mph88%30.15 "HgN/A
12:00 am54 °FPassing clouds.No wind88%30.18 "HgN/A
11:30 pm
Sat, Apr 29
54 °FPassing clouds.3 mph88%30.15 "HgN/A
10:35 pm52 °FPassing clouds.6 mph94%30.18 "HgN/A
10:00 pm54 °FPassing clouds.6 mph88%30.15 "HgN/A
9:30 pm54 °FPassing clouds.5 mph88%30.15 "HgN/A
9:00 pm55 °FPassing clouds.6 mph82%30.15 "HgN/A
8:30 pm55 °FPassing clouds.3 mph77%30.15 "HgN/A
8:00 pm55 °FPassing clouds.5 mph77%30.15 "HgN/A
7:30 pm55 °FPassing clouds.5 mph77%30.15 "HgN/A
7:00 pm55 °FPassing clouds.3 mph77%30.15 "HgN/A
6:30 pm55 °FPassing clouds.7 mph77%30.12 "HgN/A
5:30 pm57 °FPassing clouds.12 mph72%30.09 "HgN/A
5:00 pm57 °FPartly sunny.12 mph72%30.09 "HgN/A
4:30 pm57 °FPartly sunny.14 mph72%30.09 "HgN/A
4:00 pm59 °FScattered clouds.16 mph72%30.07 "HgN/A
3:30 pm59 °FPassing clouds.18 mph72%30.07 "HgN/A
3:00 pm61 °FPassing clouds.16 mph68%30.04 "HgN/A
2:30 pm63 °FPassing clouds.15 mph59%30.04 "HgN/A
2:00 pm63 °FPassing clouds.15 mph56%30.04 "HgN/A
1:30 pm63 °FPassing clouds.14 mph52%30.04 "HgN/A
1:00 pm64 °FPassing clouds.18 mph43%30.04 "HgN/A
12:30 pm64 °FScattered clouds.18 mph43%30.04 "HgN/A
12:00 pm64 °FScattered clouds.18 mph43%30.04 "HgN/A
11:00 am63 °FScattered clouds.16 mph45%30.04 "HgN/A
10:00 am63 °FPartly sunny.15 mph45%30.01 "HgN/A
9:30 am59 °FPartly sunny.10 mph55%30.01 "HgN/A
9:00 am59 °FPartly sunny.3 mph59%29.98 "HgN/A
8:30 am59 °FBroken clouds.15 mph59%29.98 "HgN/A
8:00 am59 °FBroken clouds.8 mph59%29.95 "HgN/A
7:30 am57 °FPartly sunny.6 mph63%29.95 "HgN/A
7:00 am55 °FPartly sunny.2 mph63%29.92 "HgN/A
6:30 am54 °FPassing clouds.No wind72%29.92 "HgN/A
6:00 am52 °FPassing clouds.2 mph77%29.92 "HgN/A
5:30 am57 °FPassing clouds.7 mph59%29.89 "HgN/A
5:00 am57 °FPassing clouds.10 mph59%29.89 "HgN/A
4:30 am59 °FPassing clouds.14 mph55%29.86 "HgN/A
4:00 am57 °FPassing clouds.13 mph59%29.86 "HgN/A
3:30 am54 °FPassing clouds.1 mph82%29.86 "HgN/A
3:00 am54 °FPassing clouds.2 mph82%29.86 "HgN/A
2:30 am57 °FPassing clouds.6 mph72%29.83 "HgN/A
2:00 am59 °FPassing clouds.12 mph68%29.86 "HgN/A
1:30 am61 °FPassing clouds.7 mph59%29.83 "HgN/A
1:00 am61 °FPassing clouds.12 mph59%29.83 "HgN/A
Weather by CustomWeather, © 2017

See weather overviewHow to use our weather pages